This demonstration page uses our WeatherBlox Daily Observations layout. Learn more.

Left ArrowRight Arrow

44.8408, -93.29828

Hourly Observations for July 11, 2022

Temp ( °F °C ) Dew Point ( °F °C ) Humidity (%) Winds ( mph kmh ) Pressure ( in mb ) Visibility ( mi km ) Precip ( " mm )
12:53 am 00:53 Mostly Clear 77 25 71 21.7 82 82 WNW 7 11 29.73 1007 10 16 0.00 0.00
1:53 am 01:53 Clear 76 24.4 71 21.7 85 85 NW 12 19 29.74 1007 10 16 0.00 0.00
2:53 am 02:53 Clear 73 22.8 70 21.1 90 90 WNW 5 7 29.74 1007 10 16 0.00 0.00
3:53 am 03:53 Clear 73 22.8 70 21.1 90 90 WNW 3 6 29.74 1007 10 16 0.00 0.00
4:53 am 04:53 Partly Cloudy 74 23.3 70 21.1 88 88 W 7 11 29.75 1008 9 14 0.00 0.00
5:53 am 05:53 Mostly Cloudy 73 22.8 69 20.6 87 87 NW 10 17 29.77 1008 10 16 0.00 0.00
6:53 am 06:53 Cloudy 73 22.8 69 20.6 87 87 WNW 8 13 29.79 1009 10 16 0.00 0.00
7:53 am 07:53 Cloudy 75 23.9 68 20 79 79 WSW 8 13 29.80 1009 10 16 0.00 0.00
8:53 am 08:53 Mostly Cloudy 77 25 68 20 74 74 W 9 15 29.77 1008 10 16 0.00 0.00
9:53 am 09:53 Mostly Cloudy 77 25 68 20 74 74 W 10 17 29.74 1007 10 16 0.00 0.00
10:53 am 10:53 Mostly Cloudy 81 27.2 65 18.3 58 58 W 15 24 29.74 1007 10 16 0.00 0.00
11:53 am 11:53 Mostly Cloudy 83 28.3 65 18.3 55 55 W 14 22 29.74 1007 10 16 0.00 0.00
12:53 pm 12:53 Partly Cloudy 85 29.4 62 16.7 46 46 W 18 30 29.74 1007 10 16 0.00 0.00
1:53 pm 13:53 Partly Cloudy 87 30.6 59 15 39 39 WNW 18 30 29.73 1007 10 16 0.00 0.00
2:53 pm 14:53 Mostly Sunny 86 30 55 12.8 35 35 WNW 21 33 29.73 1007 10 16 0.00 0.00
3:53 pm 15:53 Partly Cloudy 85 29.4 55 12.8 36 36 WNW 25 41 29.75 1007 10 16 0.00 0.00
4:53 pm 16:53 Partly Cloudy 81 27.2 53 11.7 38 38 NW 29 46 29.76 1008 10 16 0.00 0.00
5:53 pm 17:53 Partly Cloudy 81 27.2 53 11.7 38 38 NW 20 31 29.77 1008 10 16 0.00 0.00
6:53 pm 18:53 Cloudy with Light Rain 73 22.8 60 15.6 64 64 NW 18 30 29.79 1009 6 10 0.00 0.00
7:53 pm 19:53 Partly Cloudy 75 23.9 57 13.9 54 54 NW 23 37 29.79 1009 10 16 0.00 0.00
8:53 pm 20:53 Mostly Sunny 74 23.3 56 13.3 54 54 NW 18 30 29.82 1010 10 16 0.00 0.00
9:53 pm 21:53 Mostly Clear 72 22.2 56 13.3 57 57 NW 13 20 29.85 1011 10 16 0.00 0.00
10:53 pm 22:53 Clear 70 21.1 56 13.3 61 61 NW 10 17 29.88 1012 10 16 0.00 0.00
11:53 pm 23:53 Clear 69 20.6 56 13.3 63 63 WNW 6 9 29.88 1012 10 16 0.00 0.00

Powered by AerisWeather